Weather History for Dayton, OH

Change the Weather History Date:

Saturday, April 12, 2014

  Actual Average Record
Temperature  
Mean Temperature 61 °F 50 °F  
Max Temperature 77 °F 61 °F 87 °F (1930)
Min Temperature 45 °F 40 °F 19 °F (1940)
Degree Days  
Heating Degree Days 4 15  
Month to date heating degree days 144 202  
Since 1 July heating degree days 5620 5241  
Cooling Degree Days 0 0  
Month to date cooling degree days 0 0  
Year to date cooling degree days 0 0  
Growing Degree Days 11 (Base 50)    
Moisture  
Dew Point 46 °F    
Average Humidity 60    
Maximum Humidity 80    
Minimum Humidity 39    
Precipitation  
Precipitation 0.00 in 0.14 in 1.23 in (2002)
Month to date precipitation 3.23 1.57  
Year to date precipitation 10.83 9.86  
Snow  
Snow 0.00 in 0.00 in 1.60 in (1973)
Month to date snowfall 0.0 0.4  
Since 1 July snowfall 52.5 23.1  
Snow Depth 0.00 in    
Sea Level Pressure  
Sea Level Pressure 30.04 in    
Wind  
Wind Speed 12 mph (South)    
Max Wind Speed 22 mph    
Max Gust Speed 29 mph    
Visibility 10 miles    
Events      
T = Trace of Precipitation, MM = Missing Value Source: NWS Daily Summary

Daily Weather History Graph

Daily Weather History Graph

Search for Another Location

Airport:

Trip Planner

Search our weather history database for the weather conditions in past years. The results will help you decide how hot, cold, wet, or windy it might be!

Date:

Astronomy

Apr. 12, 2014 Rise Set
Actual Time 7:03 AM EDT 8:12 PM EDT
Civil Twilight 6:35 AM EDT 8:40 PM EDT
Nautical Twilight 6:02 AM EDT 9:13 PM EDT
Astronomical Twilight 5:28 AM EDT 9:48 PM EDT
Moon 5:50 PM EDT (4/12) 5:29 AM EDT (4/12)
Length of Visible Light 14h 04m
Length of Day
13h 08m
Waxing Gibbous, 93% of the Moon is Illuminated
Apr 12
Waxing Gibbous
Apr 15
Full
Apr 22
Last Quarter
Apr 29
New
May 6
First Quarter

Hourly Weather History & Observations

Time (EDT) Temp. Dew Point Humidity Pressure Visibility Wind Dir Wind Speed Gust Speed Precip Events Conditions
12:56 AM 52.0 °F 39.0 °F 61% 30.11 in 10.0 mi South 3.5 mph - N/A   Partly Cloudy
1:56 AM 50.0 °F 39.0 °F 66% 30.11 in 10.0 mi SSE 6.9 mph - N/A   Partly Cloudy
2:56 AM 51.1 °F 39.9 °F 66% 30.11 in 10.0 mi South 6.9 mph - N/A   Partly Cloudy
3:56 AM 48.9 °F 39.9 °F 71% 30.12 in 10.0 mi South 4.6 mph - N/A   Partly Cloudy
4:56 AM 46.9 °F 39.9 °F 77% 30.13 in 10.0 mi SSE 6.9 mph - N/A   Partly Cloudy
5:56 AM 48.0 °F 39.9 °F 74% 30.14 in 10.0 mi South 6.9 mph - N/A   Clear
6:56 AM 46.9 °F 39.9 °F 77% 30.15 in 10.0 mi SSE 5.8 mph - N/A   Partly Cloudy
7:56 AM 48.0 °F 43.0 °F 83% 30.15 in 7.0 mi SSE 6.9 mph - N/A   Partly Cloudy
8:56 AM 55.9 °F 45.0 °F 67% 30.16 in 10.0 mi South 9.2 mph - N/A   Scattered Clouds
9:56 AM 60.1 °F 45.0 °F 57% 30.15 in 10.0 mi SSE 12.7 mph - N/A   Mostly Cloudy
10:56 AM 64.0 °F 45.0 °F 50% 30.14 in 10.0 mi South 13.8 mph - N/A   Mostly Cloudy
11:56 AM 68.0 °F 43.0 °F 40% 30.11 in 10.0 mi SSE 15.0 mph - N/A   Scattered Clouds
12:56 PM 71.1 °F 48.0 °F 44% 30.07 in 10.0 mi South 16.1 mph 26.5 mph N/A   Scattered Clouds
1:56 PM 73.0 °F 53.1 °F 49% 30.04 in 10.0 mi SSW 17.3 mph - N/A   Mostly Cloudy
2:56 PM 75.0 °F 52.0 °F 44% 30.01 in 10.0 mi SSW 13.8 mph 24.2 mph N/A   Mostly Cloudy
3:56 PM 75.0 °F 51.1 °F 43% 29.97 in 10.0 mi South 18.4 mph 27.6 mph N/A   Mostly Cloudy
4:56 PM 75.9 °F 51.1 °F 42% 29.95 in 10.0 mi South 17.3 mph 25.3 mph N/A   Mostly Cloudy
5:56 PM 75.0 °F 51.1 °F 43% 29.94 in 10.0 mi South 15.0 mph 24.2 mph N/A   Mostly Cloudy
6:56 PM 75.0 °F 51.1 °F 43% 29.91 in 10.0 mi SSW 18.4 mph 26.5 mph N/A   Mostly Cloudy
7:56 PM 73.0 °F 50.0 °F 44% 29.91 in 10.0 mi South 12.7 mph - N/A   Mostly Cloudy
8:56 PM 72.0 °F 51.1 °F 48% 29.90 in 10.0 mi South 11.5 mph 19.6 mph N/A   Mostly Cloudy
9:56 PM 70.0 °F 50.0 °F 49% 29.90 in 10.0 mi South 9.2 mph - N/A   Mostly Cloudy
10:56 PM 68.0 °F 50.0 °F 52% 29.88 in 10.0 mi South 8.1 mph - N/A   Mostly Cloudy
11:56 PM 69.1 °F 51.1 °F 53% 29.86 in 10.0 mi South 12.7 mph - N/A   Mostly Cloudy